• In Italy
  • List of Countries
  • For 7 days
  • Water Temperature
  • Satellite Maps
  • Weather Map
  • Weather Widgets
  • user-avatar
    Login

    Hourly Weather Gornyaki

    Today, 25 June, Monday

    Time Temperature Precipitation Wind Pressure Humidity
    00:00 +9°C° 0 mm 1 mps 743 mmHg 94%
    01:00 +8°C° 0 mm 2 mps 743 mmHg 95%
    02:00 +8°C° 0 mm 2 mps 743 mmHg 95%
    03:00 +8°C° 0 mm 2 mps 743 mmHg 96%
    04:00 +8°C° 0 mm 2 mps 743 mmHg 96%
    05:00 +8°C° 0 mm 3 mps 743 mmHg 96%
    06:00 +9°C° 0 mm 3 mps 743 mmHg 93%
    07:00 +10°C° 0 mm 3 mps 744 mmHg 90%
    08:00 +12°C° 0 mm 3 mps 744 mmHg 87%
    09:00 +13°C° 0.2 mm 4 mps 744 mmHg 84%
    10:00 +13°C° 0.2 mm 4 mps 744 mmHg 80%
    11:00 +14°C° 0.2 mm 4 mps 744 mmHg 77%
    12:00 +15°C° 0.4 mm 4 mps 744 mmHg 76%
    13:00 +15°C° 0.4 mm 4 mps 744 mmHg 75%
    14:00 +17°C° 0.4 mm 4 mps 745 mmHg 74%
    15:00 +17°C° 0.4 mm 4 mps 745 mmHg 75%
    16:00 +17°C° 0.4 mm 4 mps 745 mmHg 77%
    17:00 +15°C° 0.4 mm 4 mps 745 mmHg 78%
    18:00 +16°C° 0.2 mm 3 mps 745 mmHg 83%
    19:00 +14°C° 0.2 mm 3 mps 745 mmHg 87%
    20:00 +14°C° 0.2 mm 2 mps 745 mmHg 91%
    21:00 +13°C° 0 mm 2 mps 746 mmHg 93%
    22:00 +12°C° 0 mm 2 mps 746 mmHg 94%
    23:00 +10°C° 0 mm 2 mps 746 mmHg 95%

    Tomorrow, 26 June, Tuesday

    Time Temperature Precipitation Wind Pressure Humidity
    00:00 +10°C° 0 mm 2 mps 747 mmHg 95%
    01:00 +10°C° 0 mm 2 mps 747 mmHg 96%
    02:00 +9°C° 0 mm 2 mps 747 mmHg 96%
    03:00 +9°C° 0 mm 2 mps 747 mmHg 96%
    04:00 +10°C° 0 mm 2 mps 748 mmHg 96%
    05:00 +11°C° 0 mm 1 mps 748 mmHg 96%
    06:00 +12°C° 0 mm 2 mps 748 mmHg 91%
    07:00 +14°C° 0 mm 2 mps 749 mmHg 87%
    08:00 +16°C° 0 mm 2 mps 749 mmHg 83%
    09:00 +17°C° 0 mm 2 mps 749 mmHg 76%
    10:00 +19°C° 0 mm 3 mps 749 mmHg 70%
    11:00 +20°C° 0 mm 3 mps 749 mmHg 64%
    12:00 +21°C° 0.2 mm 3 mps 749 mmHg 63%
    13:00 +21°C° 0.2 mm 3 mps 749 mmHg 62%
    14:00 +22°C° 0.2 mm 3 mps 749 mmHg 61%
    15:00 +22°C° 0.3 mm 3 mps 749 mmHg 65%
    16:00 +21°C° 0.3 mm 2 mps 749 mmHg 68%
    17:00 +21°C° 0.3 mm 2 mps 749 mmHg 71%
    18:00 +20°C° 0.3 mm 2 mps 749 mmHg 76%
    19:00 +19°C° 0.3 mm 2 mps 750 mmHg 81%
    20:00 +18°C° 0.3 mm 2 mps 750 mmHg 86%
    21:00 +17°C° 0.2 mm 2 mps 750 mmHg 88%
    22:00 +16°C° 0.2 mm 2 mps 750 mmHg 90%
    23:00 +15°C° 0.2 mm 2 mps 750 mmHg 92%

    Day after tomorrow, 27 June, Wednesday

    Time Temperature Precipitation Wind Pressure Humidity
    00:00 +15°C° 0 mm 2 mps 750 mmHg 93%
    01:00 +14°C° 0 mm 2 mps 751 mmHg 93%
    02:00 +14°C° 0 mm 2 mps 751 mmHg 93%
    03:00 +14°C° 0 mm 2 mps 751 mmHg 94%
    04:00 +14°C° 0 mm 2 mps 751 mmHg 94%
    05:00 +14°C° 0 mm 2 mps 751 mmHg 94%
    06:00 +16°C° 0 mm 3 mps 752 mmHg 90%
    07:00 +18°C° 0 mm 3 mps 752 mmHg 86%
    08:00 +19°C° 0 mm 3 mps 752 mmHg 82%
    09:00 +21°C° 0 mm 4 mps 752 mmHg 74%
    10:00 +22°C° 0 mm 4 mps 752 mmHg 65%
    11:00 +25°C° 0 mm 5 mps 752 mmHg 57%
    12:00 +25°C° 0 mm 5 mps 752 mmHg 56%
    13:00 +26°C° 0 mm 5 mps 752 mmHg 54%
    14:00 +27°C° 0 mm 5 mps 751 mmHg 53%
    15:00 +27°C° 0 mm 5 mps 751 mmHg 55%
    16:00 +26°C° 0 mm 5 mps 751 mmHg 58%
    17:00 +26°C° 0 mm 4 mps 751 mmHg 61%
    18:00 +25°C° 0 mm 4 mps 751 mmHg 66%
    19:00 +22°C° 0 mm 4 mps 751 mmHg 71%
    20:00 +21°C° 0 mm 4 mps 751 mmHg 76%
    21:00 +20°C° 0 mm 4 mps 751 mmHg 78%
    22:00 +19°C° 0 mm 4 mps 751 mmHg 80%
    23:00 +18°C° 0 mm 4 mps 751 mmHg 82%

    28 June, Thursday

    Time Temperature Precipitation Wind Pressure Humidity
    00:00 +18°C° 0 mm 4 mps 751 mmHg 82%
    01:00 +17°C° 0 mm 4 mps 751 mmHg 83%
    02:00 +17°C° 0 mm 4 mps 751 mmHg 83%
    03:00 +17°C° 0 mm 4 mps 751 mmHg 83%
    04:00 +17°C° 0 mm 4 mps 751 mmHg 84%
    05:00 +17°C° 0 mm 4 mps 751 mmHg 84%
    06:00 +17°C° 0 mm 5 mps 750 mmHg 79%
    07:00 +20°C° 0 mm 5 mps 750 mmHg 74%
    08:00 +22°C° 0 mm 6 mps 750 mmHg 69%
    09:00 +23°C° 0 mm 6 mps 750 mmHg 65%
    10:00 +24°C° 0 mm 6 mps 750 mmHg 60%
    11:00 +27°C° 0 mm 6 mps 750 mmHg 56%
    12:00 +27°C° 0 mm 6 mps 749 mmHg 55%
    13:00 +27°C° 0 mm 6 mps 749 mmHg 55%
    14:00 +28°C° 0 mm 6 mps 749 mmHg 54%
    15:00 +28°C° 0 mm 6 mps 749 mmHg 56%
    16:00 +27°C° 0 mm 5 mps 748 mmHg 59%
    17:00 +27°C° 0 mm 5 mps 748 mmHg 62%
    18:00 +26°C° 0 mm 4 mps 748 mmHg 67%
    19:00 +23°C° 0 mm 4 mps 748 mmHg 72%
    20:00 +22°C° 0 mm 3 mps 748 mmHg 77%
    21:00 +21°C° 0 mm 3 mps 747 mmHg 79%
    22:00 +20°C° 0 mm 3 mps 747 mmHg 82%
    23:00 +19°C° 0 mm 2 mps 747 mmHg 84%

    29 June, Friday

    Time Temperature Precipitation Wind Pressure Humidity
    00:00 +19°C° 0 mm 2 mps 747 mmHg 86%
    01:00 +18°C° 0 mm 2 mps 746 mmHg 88%
    02:00 +18°C° 0 mm 2 mps 746 mmHg 89%
    03:00 +18°C° 0 mm 2 mps 746 mmHg 89%
    04:00 +17°C° 0 mm 2 mps 746 mmHg 89%
    05:00 +17°C° 0 mm 2 mps 745 mmHg 89%
    06:00 +19°C° 0 mm 2 mps 745 mmHg 84%
    07:00 +21°C° 0 mm 2 mps 745 mmHg 79%
    08:00 +23°C° 0 mm 2 mps 744 mmHg 74%
    09:00 +25°C° 0 mm 2 mps 744 mmHg 69%
    10:00 +26°C° 0 mm 2 mps 744 mmHg 63%
    11:00 +27°C° 0 mm 2 mps 743 mmHg 58%
    12:00 +28°C° 0 mm 2 mps 743 mmHg 56%
    13:00 +28°C° 0 mm 2 mps 742 mmHg 54%
    14:00 +29°C° 0 mm 2 mps 742 mmHg 51%
    15:00 +29°C° 0 mm 1 mps 741 mmHg 53%
    16:00 +29°C° 0 mm 1 mps 741 mmHg 56%
    17:00 +29°C° 0 mm 1 mps 740 mmHg 58%
    18:00 +27°C° 0.1 mm 1 mps 740 mmHg 65%
    19:00 +25°C° 0.1 mm 2 mps 740 mmHg 71%
    20:00 +24°C° 0.1 mm 2 mps 739 mmHg 78%
    21:00 +21°C° 0.5 mm 3 mps 739 mmHg 83%
    22:00 +20°C° 0.5 mm 4 mps 739 mmHg 87%
    23:00 +19°C° 0.5 mm 4 mps 739 mmHg 92%

    30 June, Saturday

    Time Temperature Precipitation Wind Pressure Humidity
    00:00 +16°C° 0.1 mm 5 mps 739 mmHg 91%
    01:00 +14°C° 0.1 mm 5 mps 739 mmHg 90%
    02:00 +11°C° 0.1 mm 6 mps 739 mmHg 89%
    03:00 +10°C° 0 mm 5 mps 740 mmHg 90%
    04:00 +9°C° 0 mm 5 mps 740 mmHg 90%
    05:00 +9°C° 0 mm 5 mps 740 mmHg 91%
    06:00 +10°C° 0 mm 6 mps 740 mmHg 84%
    07:00 +11°C° 0 mm 6 mps 740 mmHg 77%
    08:00 +13°C° 0 mm 6 mps 741 mmHg 70%
    09:00 +15°C° 0 mm 7 mps 740 mmHg 67%
    10:00 +16°C° 0 mm 7 mps 740 mmHg 63%
    11:00 +17°C° 0 mm 7 mps 740 mmHg 60%
    12:00 +17°C° 0 mm 7 mps 740 mmHg 57%
    13:00 +18°C° 0 mm 8 mps 740 mmHg 54%
    14:00 +18°C° 0 mm 8 mps 740 mmHg 52%
    15:00 +18°C° 0 mm 8 mps 740 mmHg 55%
    16:00 +17°C° 0 mm 7 mps 740 mmHg 57%
    17:00 +17°C° 0 mm 7 mps 740 mmHg 60%
    18:00 +15°C° 0 mm 6 mps 740 mmHg 63%
    19:00 +14°C° 0 mm 6 mps 741 mmHg 67%
    20:00 +13°C° 0 mm 5 mps 741 mmHg 71%
    21:00 +13°C° 0 mm 5 mps 741 mmHg 70%
    22:00 +12°C° 0 mm 5 mps 741 mmHg 70%
    23:00 +12°C° 0 mm 5 mps 742 mmHg 70%
    Show more